sat.trackr.live / text

‹ back to catalog

STARLINK-30386

NORAD 57816 · 2023-138J

PAYLOAD ACTIVE UNKNOWN

§ Identity

Operator
Country
US
Launch date
2023-09-09
Launch site
AFETR
Launch vehicle
Mass (kg)
RCS (m²)

Purposes: comms

External: N2YO · Heavens-Above · Gunter

§ Orbital elements

Epoch: 2026-05-24T12:37:35.462496Z

Period
94.27 min
Inclination
43.0032°
Eccentricity
0.0001898
Mean motion
15.27575905 rev/d
Perigee alt
481.8 km
Apogee alt
484.4 km
Semi-major
6,861.2 km
B*
5.9747e-5
RAAN
166.1472°
Arg perigee
276.5237°
Mean anomaly
83.5398°
Rev number
15,015

§ Raw data

STARLINK-303861 57816U 23138J   26144.52610489  .00001382  00000+0  59747-4 0  99952 57816  43.0032 166.1472 0001898 276.5237  83.5398 15.27575905150150

JSON: /api/v1/satellites/57816 · /tle

For live sub-satellite position, see the globe view (requires WebGL).

§ Visibility from observer

Set your observer location to see the next 7 days of passes ≥ 10°. The values pass through the URL so the page stays shareable.

No JS? Fill the form by hand. The geolocation button needs JavaScript.